Flag for Switzerland Weather past 2 weeks in Yverdon-les-Bains, Vaud, Switzerland

Now
60 °F

Cool.


Feels Like: 60 °F
Forecast: 58 / 66 °F
Wind: 2 mph from South

Location: Payerne

Current Time: Jul 29, 2014 at 12:52:44 AM

Latest Report: Jul 29, 2014 at 12:00 AM


Visibility: N/A

Pressure: 29.88 "Hg

Humidity: 98%

Dew point: 59 °F

Location of Yverdon-les-BainsLocation

Historic Weather in Yverdon-les-Bains — Graph

°F

Yverdon-les-Bains temperature yesterday

Maximum temperature yesterday: 74 °F (at 1:00 PM)
Minimum temperature yesterday: 60 °F (at 11:00 PM)
Average temperature yesterday: 64 °F

Past Weeks' High & Low Weather Summary

 TemperatureHumidityPressure
High86 °F (Jul 18, 5:00 PM)99% (Jul 23, 2:00 AM)30.20 "Hg (Jul 23, 2:00 AM)
Low54 °F (Jul 16, 6:00 AM)32% (Jul 18, 4:00 PM)29.79 "Hg (Jul 25, 5:00 PM)
Average66 °F77%29.97 "Hg
* Reported Jul 13 11:00 PM — Jul 28 11:00 PM, Yverdon-les-Bains, Weather by CustomWeather, © 2014

Note: Actual official high and low records may vary slightly from our data, if they occured in-between our weather recording intervals... More about our weather records

Advertising

Yverdon-les-Bains weather history for previous 24 hours

 ConditionsComfort  
Time TempWeatherWind HumidityBarometerVisibility
11:00 PM
Jul 28
60 °FRain. Overcast.2 mph97%29.89 "Hg2 mi
10:00 PM60 °FCool.1 mph98%29.90 "HgN/A
9:00 PM60 °FCool.No wind96%29.90 "HgN/A
8:00 PM60 °FRain. Overcast.3 mph96%29.90 "Hg4 mi
7:00 PM61 °FCool.7 mph96%29.89 "HgN/A
6:00 PM62 °FMild.3 mph93%29.87 "HgN/A
5:00 PM64 °FMild.6 mph82%29.85 "HgN/A
4:00 PM69 °FMild.12 mph67%29.80 "HgN/A
3:00 PM73 °FMild.6 mph56%29.79 "HgN/A
2:00 PM70 °FRain. Partly sunny.7 mph74%29.82 "Hg8 mi
1:00 PM74 °FMild.5 mph54%29.81 "HgN/A
12:00 PM72 °FMild.3 mph62%29.84 "HgN/A
11:00 AM70 °FOvercast.2 mph68%29.86 "Hg10 mi
10:00 AM69 °FMild.2 mph71%29.88 "HgN/A
9:00 AM65 °FMild.1 mph82%29.90 "HgN/A
8:00 AM63 °FFog.3 mph89%29.92 "Hg8 mi
7:00 AM60 °FCool.2 mph97%29.93 "HgN/A
6:00 AM60 °FCool.1 mph96%29.94 "HgN/A
5:00 AM60 °FCool.3 mph96%29.94 "HgN/A
4:00 AM60 °FCool.1 mph96%29.95 "HgN/A
3:00 AM62 °FCool.1 mph95%29.96 "HgN/A
2:00 AM61 °FPassing clouds.No wind96%29.98 "Hg10 mi
1:00 AM64 °FMild.1 mph90%29.98 "HgN/A
12:00 AM65 °FMild.2 mph87%29.99 "HgN/A
Weather by CustomWeather, © 2014

See weather overviewHow to use our weather pages